RH
71 72 77 79 79 86 86 81 79 84 86 88 88 86 90 94 94 96 97 95 91 91 97 94 93 94 97 97 97 96 94 94 90 78 83 83 74 82 77 79 80 81 89
69 72 75 76 90 91 86 84 89 94 94 92 91 94 94 93 95 98 98 96 94 93 98 94 91 95 97 94 93 82 78 78 68 83 86 81 80 81 87 91 80 70 88
70 73 78 79 81 86 90 92 95 94 94 93 94 94 94 94 95 98 97 97 98 96 92 91 95 94 94 86 69 72 75 70 80 85 86 91 84 85 92 82 82 84 79
69 74 78 84 83 81 83 92 96 96 96 96 96 95 95 95 96 98 98 98 98 95 96 95 89 85 72 62 67 73 80 83 88 90 93 95 95 87 90 83 80 77 98
73 78 78 78 81 85 93 95 96 97 95 96 96 96 96 97 98 99 97 98 97 93 82 72 60 57 60 62 58 80 84 90 90 93 94 96 96 90 75 86 93 86 79
75 80 78 81 84 88 91 96 97 97 97 97 97 96 95 91 99 98 97 97 90 76 72 65 68 74 76 75 72 66 72 80 87 93 95 94 94 97 92 83 91 95 66
72 75 79 84 87 92 92 96 97 97 97 97 97 94 95 95 99 98 94 92 83 66 56 71 63 64 70 73 74 73 73 72 69 84 90 92 92 93 96 84 84 92 94
68 73 78 83 83 92 96 96 96 97 97 97 95 93 96 98 99 98 93 78 68 69 68 72 77 86 84 75 84 80 81 74 78 74 89 89 89 90 90 84 83 70 75
62 69 76 81 87 92 93 95 96 97 97 97 94 94 96 99 100 93 75 65 58 55 61 67 74 86 88 84 82 81 81 67 72 83 79 82 77 79 77 47 52 48 66
59 65 75 81 86 92 92 96 97 97 99 93 98 95 98 98 91 85 67 54 52 56 61 71 74 79 86 83 78 72 60 65 78 88 82 87 80 80 75 83 77 50 64
67 80 86 85 88 90 96 98 99 99 98 97 98 97 98 80 79 81 72 50 44 46 49 54 64 76 80 79 68 58 57 66 77 92 93 92 96 91 89 89 93 60 55
91 91 94 94 86 93 97 98 99 98 98 98 98 99 92 77 81 82 76 61 59 42 47 52 60 72 73 68 68 85 82 79 74 72 79 92 97 94 92 95 92 86 81
94 96 96 95 95 97 98 99 99 98 97 98 97 95 87 80 79 87 79 75 71 53 51 57 72 73 74 69 83 75 76 71 68 69 81 94 97 96 93 95 94 92 86
95 97 97 97 99 98 96 94 95 95 96 94 88 85 78 79 84 77 70 69 70 59 68 69 68 73 74 74 70 80 78 74 68 75 81 83 82 80 81 93 82 80 80
96 97 98 97 96 98 97 99 94 90 86 84 77 73 76 83 81 74 64 50 45 50 66 72 67 68 77 74 74 74 80 76 69 76 74 73 74 72 76 72 73 75 80
97 98 94 96 98 98 98 97 95 100 100 98 83 69 70 81 80 76 70 67 69 77 68 68 71 73 81 77 74 71 74 78 84 73 78 74 73 69 66 67 69 75 77
97 94 98 98 98 97 96 95 99 96 100 100 90 86 79 82 80 76 72 72 80 76 71 76 76 83 87 81 74 67 68 82 87 77 77 78 75 74 70 72 69 66 69
97 100 93 95 96 93 91 92 87 89 93 96 94 85 87 84 82 79 80 76 75 78 86 88 81 75 82 76 71 66 78 79 73 70 74 75 71 69 68 64 60 62 67
97 92 92 92 86 89 89 90 85 86 94 92 86 88 88 86 84 82 75 49 58 73 82 77 72 76 76 77 74 79 75 78 78 68 65 64 66 65 68 67 64 66 65
93 92 88 87 94 90 91 90 87 83 89 86 84 80 81 68 66 63 67 65 67 69 79 69 77 81 77 82 81 75 72 78 77 75 69 63 63 61 60 58 55 54 61
88 90 90 88 91 90 87 88 81 81 83 79 76 71 73 56 57 57 67 64 66 74 73 68 69 72 77 77 76 74 67 72 74 74 76 68 68 64 67 64 60 59 59
92 86 85 86 88 84 84 82 80 75 76 74 71 69 78 55 56 56 62 66 74 76 62 65 66 65 67 68 76 74 73 72 74 71 70 67 67 66 66 64 64 64 66
89 86 84 81 83 89 82 75 74 71 71 69 65 62 64 59 57 55 56 62 76 74 72 67 66 71 76 73 74 77 69 68 70 71 67 68 63 63 58 56 57 59 57
96 84 85 83 79 77 75 74 71 78 68 67 63 59 58 58 54 54 52 65 78 65 65 63 56 56 68 73 77 77 68 68 71 65 64 66 68 66 58 54 51 49 54
97 98 89 88 78 78 75 74 71 70 66 66 62 59 57 59 55 52 57 69 68 61 61 58 56 57 61 64 66 68 72 85 68 75 66 63 60 56 53 51 54 57 60
95 98 98 96 92 85 74 72 72 71 69 67 63 61 58 58 55 53 61 64 57 52 54 54 56 56 59 57 59 75 83 84 75 78 64 56 52 56 52 49 48 53 57
Wind_Speed
14 14 13 12 11 8 10 11 10 7 6 6 7 6 6 5 5 5 9 8 7 5 6 4 8 3 2 3 4 3 3 2 3 3 3 3 7 6 8 7 7 6 3
15 14 13 11 8 11 11 10 7 7 6 7 6 6 5 6 6 9 10 9 9 8 6 2 6 4 5 5 4 5 5 3 4 4 4 4 2 4 5 6 6 5 3
14 14 12 12 11 12 10 8 7 8 6 6 5 6 6 6 7 7 6 7 3 5 6 3 1 6 6 4 4 5 4 5 6 4 2 2 3 3 5 4 5 4 4
15 14 13 13 14 12 10 8 7 6 6 6 7 7 7 8 3 6 7 7 7 4 4 4 6 7 7 6 5 6 5 6 4 3 2 3 2 5 3 5 7 5 2
15 14 15 14 12 10 7 7 7 7 7 7 7 6 7 6 6 7 7 9 8 8 6 7 5 10 11 7 6 5 7 4 3 3 2 2 3 4 7 4 3 4 3
15 15 14 11 10 9 9 7 7 7 8 7 7 8 6 2 16 14 11 10 10 9 8 6 7 10 9 14 13 11 9 6 3 2 1 3 5 3 4 4 4 5 6
14 13 11 10 10 10 8 7 7 8 6 6 7 4 6 7 15 15 16 10 10 10 8 6 6 4 8 7 8 7 5 5 5 5 3 2 3 3 5 6 5 3 4
12 12 11 11 11 7 9 9 7 6 6 6 4 7 8 6 15 16 17 12 10 8 7 6 7 6 6 7 5 4 4 2 3 3 4 2 1 5 3 3 4 7 4
13 12 11 11 10 10 10 9 6 5 4 4 7 9 11 7 13 17 15 12 11 10 6 6 6 6 7 9 7 6 4 4 3 5 5 7 10 12 11 6 9 8 4
13 12 10 11 11 12 11 8 5 5 7 7 8 7 11 12 14 16 14 10 11 7 5 5 8 7 8 8 7 6 5 2 2 4 2 6 7 8 13 7 4 8 4
9 8 9 11 12 11 9 5 7 9 10 9 10 8 10 13 12 16 16 9 9 7 5 4 3 8 8 8 7 4 3 1 4 6 4 2 3 5 4 5 6 6 7
8 9 9 11 9 9 12 8 11 12 11 11 11 8 7 10 13 13 13 14 11 10 6 4 4 7 8 7 6 8 8 5 5 4 3 2 2 2 3 3 4 5 3
7 8 9 9 9 11 13 12 10 10 11 9 9 9 7 6 7 14 16 16 12 7 5 7 7 7 8 6 9 10 8 5 5 5 3 2 1 1 1 4 3 1 4
8 9 9 11 10 9 8 10 10 9 10 10 9 10 8 6 8 7 8 8 12 7 9 5 5 6 7 4 5 6 5 4 5 4 2 2 2 3 3 2 4 4 4
8 8 9 10 11 10 6 3 7 9 12 11 10 11 12 9 9 12 13 9 7 8 7 4 3 3 3 3 3 5 4 4 5 3 4 4 4 4 4 3 3 4 5
8 8 9 9 8 8 8 6 14 5 14 13 13 11 5 12 17 17 17 15 15 15 4 4 3 3 4 3 3 3 3 4 4 5 4 4 4 4 3 3 3 4 5
10 10 7 9 9 9 8 9 9 8 12 10 16 15 15 16 18 17 18 17 18 9 4 4 5 5 4 4 4 3 2 1 4 5 5 5 4 3 3 3 3 4 4
8 11 10 9 9 9 9 9 9 10 10 5 5 9 18 19 18 18 18 13 5 2 3 5 5 5 5 5 5 4 3 3 4 5 5 4 4 4 3 3 3 3 3
9 8 7 8 8 9 8 9 9 9 9 7 4 8 6 14 15 18 16 9 9 5 4 5 5 5 5 5 5 4 5 4 4 5 5 5 4 5 3 2 3 5 5
10 13 10 9 8 9 9 9 8 8 9 8 8 8 6 9 8 10 5 6 6 5 5 6 5 6 7 6 5 5 5 4 4 4 5 5 5 5 4 4 3 3 3
7 9 13 9 9 9 9 10 8 9 9 9 9 9 15 12 11 10 7 7 7 6 6 7 7 7 6 6 5 5 6 5 5 5 5 5 5 5 3 4 4 3 3
7 10 9 9 8 9 10 8 9 10 10 10 8 9 14 8 9 9 8 8 7 6 7 8 8 8 8 7 6 6 5 5 5 5 6 5 5 5 5 4 4 3 2
6 10 9 9 9 10 10 10 10 10 10 10 10 11 10 9 9 9 9 7 7 6 6 7 8 6 5 6 6 6 6 6 6 6 6 6 5 6 6 5 6 5 4
4 8 11 10 10 11 11 11 10 12 12 11 11 12 12 10 10 10 9 7 6 6 8 8 9 11 8 6 5 5 5 5 6 7 9 7 6 6 6 5 5 7 6
6 3 9 11 12 13 12 12 12 12 12 11 11 11 11 10 10 10 8 8 7 9 10 9 8 11 12 12 9 10 10 11 9 9 6 8 9 10 7 6 6 5 5
7 5 3 8 10 13 13 14 14 14 13 11 11 11 11 11 10 10 8 9 9 10 12 9 10 13 13 11 12 13 13 11 10 12 9 8 9 6 6 7 9 5 6
Wind_Direction
197 200 205 210 212 200 209 223 228 240 239 250 259 262 252 247 221 157 133 182 210 244 92 36 294 331 38 43 60 68 59 82 123 45 30 327 8 356 340 332 325 319 14
195 198 206 208 199 207 215 222 215 222 222 233 241 262 249 230 220 144 164 185 210 231 105 327 281 67 74 63 56 63 58 18 113 88 350 343 341 331 303 306 318 338 14
191 198 203 210 211 215 213 214 204 218 224 235 229 231 249 239 232 143 175 177 223 99 139 214 128 118 88 79 68 79 66 64 60 89 346 302 298 311 322 323 332 335 27
191 195 202 206 212 216 212 204 202 200 208 222 228 226 227 233 169 150 143 128 112 129 107 93 105 104 114 104 100 92 82 73 72 78 16 309 295 300 314 336 354 3 343
187 193 206 210 211 210 200 201 197 191 210 215 226 232 233 229 141 134 123 127 120 93 93 79 101 111 121 144 111 95 91 91 86 67 16 313 321 333 11 325 313 318 308
186 197 203 201 201 202 202 192 180 198 208 207 219 223 231 104 133 133 131 127 116 121 111 100 89 102 113 99 99 119 136 127 109 128 298 28 348 302 323 334 329 341 359
190 199 195 190 195 197 192 178 186 201 195 202 222 198 102 109 125 126 128 123 126 129 128 125 115 105 100 99 111 112 120 122 142 154 112 344 333 318 320 333 345 307 282
193 195 192 190 196 174 176 190 195 190 185 204 129 116 112 108 124 121 116 123 123 116 110 117 115 119 136 134 129 95 68 76 133 145 124 145 28 344 359 299 297 297 298
198 197 192 187 183 177 185 191 184 152 166 111 128 125 122 124 126 121 119 109 105 95 97 103 112 112 126 134 123 110 83 28 22 174 165 102 56 36 23 23 14 2 334
199 200 186 180 181 183 182 174 151 123 118 124 103 118 129 124 124 119 119 117 112 112 85 84 98 106 102 110 114 118 80 346 31 84 76 57 58 36 37 42 357 21 341
193 178 174 178 179 175 156 127 125 122 117 115 113 118 120 133 135 123 125 126 133 127 125 120 104 110 118 122 120 120 144 166 54 81 87 101 53 42 25 26 22 39 32
163 168 169 166 167 155 136 130 132 129 127 122 123 115 119 136 135 124 121 124 134 131 143 141 144 134 123 97 66 62 120 118 85 74 53 51 86 19 358 22 24 27 50
164 163 157 152 147 144 138 140 136 136 138 134 135 135 134 135 136 135 133 127 124 115 137 151 144 122 89 58 60 80 89 98 97 72 46 48 89 170 349 332 327 342 22
163 159 154 146 139 137 139 146 144 148 144 142 146 148 144 139 136 138 128 113 112 107 124 111 115 98 75 72 59 64 93 110 120 117 86 29 37 43 35 355 37 4 30
158 154 144 142 143 133 103 116 154 161 151 154 161 157 155 159 169 154 146 143 146 143 117 84 70 65 73 61 51 69 72 83 96 94 99 89 64 62 27 16 38 26 42
151 152 153 143 132 133 126 91 35 82 131 132 145 153 132 135 140 146 138 139 137 141 101 128 135 137 136 146 126 87 59 88 108 120 109 106 98 86 70 28 49 54 52
159 158 131 134 143 142 145 139 129 34 61 122 142 139 134 147 144 146 143 147 145 125 123 155 158 162 170 168 150 135 108 164 134 124 128 130 120 94 80 48 45 50 53
149 140 152 150 149 147 158 149 145 152 155 132 50 151 138 146 151 145 134 120 129 84 143 160 164 160 165 162 162 138 119 108 100 121 124 133 123 118 97 82 62 75 64
138 155 153 147 151 151 155 144 154 148 153 146 120 55 111 135 145 146 157 159 166 169 170 156 156 159 159 157 155 142 136 143 140 129 125 129 131 119 101 89 91 85 81
162 157 151 151 145 152 152 154 150 149 151 155 158 161 139 130 157 165 184 160 160 169 166 159 168 150 155 159 158 148 137 124 134 138 142 138 139 134 135 131 105 90 74
155 154 148 148 159 160 160 168 152 157 162 166 164 164 167 169 167 171 178 175 172 172 169 163 159 157 159 157 155 159 150 151 149 148 151 144 146 143 163 138 116 89 89
160 158 161 159 159 167 168 159 162 165 166 162 156 164 169 167 168 174 182 179 175 171 170 162 163 166 169 166 164 155 160 163 153 152 144 153 144 136 148 152 142 134 137
184 168 161 164 170 168 174 157 171 168 166 164 163 163 181 175 175 181 188 181 168 164 158 163 161 164 170 165 159 159 161 177 179 157 153 150 141 140 142 144 137 118 118
323 193 174 173 177 179 184 161 172 170 167 164 170 175 182 181 181 185 189 173 160 167 164 167 172 169 171 169 165 175 180 176 159 165 152 143 148 150 130 135 154 147 142
346 307 200 184 187 185 183 163 170 175 172 172 174 180 184 181 182 187 183 170 163 166 175 177 171 172 173 168 172 183 165 165 157 158 138 139 148 151 152 143 145 148 140
335 290 252 203 199 195 185 170 173 173 172 172 179 182 184 185 186 184 178 174 169 173 176 179 178 173 173 172 174 167 158 163 145 143 141 143 142 147 149 149 146 140 143